Time,TemperatureF,DewpointF,PressureIn,WindDirection,WindDirectionDegrees,WindSpeedMPH,WindSpeedGustMPH,Humidity,HourlyPrecipIn,Conditions,Clouds,dailyrainin,SoftwareType,DateUTC
2013-07-02 00:03:00,62.3,58.0,30.10,NE,51,3.0,-999.0,87,-99.99,,,0.00,weatherlink.com 1.10,2013-07-02 04:03:00,
2013-07-02 00:18:00,62.4,58.0,30.11,NE,43,6.0,-999.0,86,-99.99,,,0.00,weatherlink.com 1.10,2013-07-02 04:18:00,
2013-07-02 00:33:00,62.7,58.0,30.10,NE,54,0.0,-999.0,85,-99.99,,,0.00,weatherlink.com 1.10,2013-07-02 04:33:00,
2013-07-02 00:48:00,62.8,58.0,30.10,East,93,0.0,-999.0,85,-99.99,,,0.00,weatherlink.com 1.10,2013-07-02 04:48:00,
2013-07-02 01:03:00,62.6,58.0,30.10,ESE,111,2.0,-999.0,86,-99.99,,,0.00,weatherlink.com 1.10,2013-07-02 05:03:00,
2013-07-02 01:18:00,62.2,58.0,30.11,NE,44,1.0,-999.0,86,-99.99,,,0.00,weatherlink.com 1.10,2013-07-02 05:18:00,
2013-07-02 01:33:00,62.3,58.0,30.11,NE,44,2.0,-999.0,85,-99.99,,,0.00,weatherlink.com 1.10,2013-07-02 05:33:00,
2013-07-02 01:48:00,62.6,58.0,30.11,East,94,0.0,-999.0,84,-99.99,,,0.00,weatherlink.com 1.10,2013-07-02 05:48:00,
2013-07-02 02:03:00,62.6,58.0,30.11,NNE,24,1.0,-999.0,85,-99.99,,,0.00,weatherlink.com 1.10,2013-07-02 06:03:00,
2013-07-02 02:18:00,61.5,58.0,30.10,East,100,0.0,-999.0,88,-99.99,,,0.00,weatherlink.com 1.10,2013-07-02 06:18:00,
2013-07-02 02:33:00,60.9,58.0,30.11,East,95,0.0,-999.0,90,-99.99,,,0.00,weatherlink.com 1.10,2013-07-02 06:33:00,
2013-07-02 02:48:00,60.7,58.0,30.10,East,88,0.0,-999.0,91,-99.99,,,0.00,weatherlink.com 1.10,2013-07-02 06:48:00,
2013-07-02 03:03:00,60.5,58.0,30.10,NE,35,3.0,-999.0,91,-99.99,,,0.00,weatherlink.com 1.10,2013-07-02 07:03:00,
2013-07-02 03:18:00,60.5,58.0,30.09,NNE,33,1.0,-999.0,91,-99.99,,,0.00,weatherlink.com 1.10,2013-07-02 07:18:00,
2013-07-02 03:33:00,60.5,58.0,30.08,North,11,3.0,-999.0,91,-99.99,,,0.00,weatherlink.com 1.10,2013-07-02 07:33:00,
2013-07-02 03:48:00,60.5,58.0,30.07,NE,50,3.0,-999.0,91,-99.99,,,0.00,weatherlink.com 1.10,2013-07-02 07:48:00,
2013-07-02 04:03:00,60.7,58.0,30.07,ENE,76,0.0,-999.0,90,-99.99,,,0.00,weatherlink.com 1.10,2013-07-02 08:03:00,
2013-07-02 04:18:00,60.9,58.0,30.08,SE,141,0.0,-999.0,90,-99.99,,,0.00,weatherlink.com 1.10,2013-07-02 08:18:00,
2013-07-02 04:33:00,61.0,58.0,30.08,ENE,63,4.0,-999.0,90,-99.99,,,0.00,weatherlink.com 1.10,2013-07-02 08:33:00,
2013-07-02 04:48:00,61.2,58.0,30.06,NE,49,4.0,-999.0,89,-99.99,,,0.00,weatherlink.com 1.10,2013-07-02 08:48:00,
2013-07-02 05:03:00,61.4,58.0,30.07,ENE,57,0.0,-999.0,89,-99.99,,,0.00,weatherlink.com 1.10,2013-07-02 09:03:00,
2013-07-02 05:18:00,61.4,58.0,30.07,NE,46,0.0,-999.0,89,-99.99,,,0.00,weatherlink.com 1.10,2013-07-02 09:18:00,
2013-07-02 05:33:00,61.4,59.0,30.08,NE,38,0.0,-999.0,90,-99.99,,,0.00,weatherlink.com 1.10,2013-07-02 09:33:00,
2013-07-02 05:48:00,61.4,59.0,30.08,NE,53,0.0,-999.0,90,-99.99,,,0.00,weatherlink.com 1.10,2013-07-02 09:48:00,
2013-07-02 06:03:00,61.7,59.0,30.08,NE,55,3.0,-999.0,90,-99.99,,,0.00,weatherlink.com 1.10,2013-07-02 10:03:00,
2013-07-02 06:18:00,61.7,59.0,30.08,NNE,18,0.0,-999.0,89,-99.99,,,0.00,weatherlink.com 1.10,2013-07-02 10:18:00,
2013-07-02 06:33:00,61.8,59.0,30.09,NE,50,0.0,-999.0,90,-99.99,,,0.00,weatherlink.com 1.10,2013-07-02 10:33:00,
2013-07-02 06:48:00,61.8,59.0,30.10,NE,50,0.0,-999.0,90,-99.99,,,0.00,weatherlink.com 1.10,2013-07-02 10:48:00,
2013-07-02 07:03:00,62.1,59.0,30.09,ENE,59,0.0,-999.0,90,-99.99,,,0.00,weatherlink.com 1.10,2013-07-02 11:03:00,
2013-07-02 07:18:00,62.5,59.0,30.09,NE,44,4.0,-999.0,89,-99.99,,,0.00,weatherlink.com 1.10,2013-07-02 11:18:00,
2013-07-02 07:33:00,62.9,59.0,30.09,North,9,0.0,-999.0,88,-99.99,,,0.00,weatherlink.com 1.10,2013-07-02 11:33:00,
2013-07-02 07:48:00,62.9,59.0,30.09,ENE,60,2.0,-999.0,88,-99.99,,,0.00,weatherlink.com 1.10,2013-07-02 11:48:00,
2013-07-02 08:03:00,63.1,59.0,30.09,ENE,57,0.0,-999.0,87,-99.99,,,0.00,weatherlink.com 1.10,2013-07-02 12:03:00,
2013-07-02 08:18:00,63.5,60.0,30.09,ENE,77,0.0,-999.0,87,-99.99,,,0.00,weatherlink.com 1.10,2013-07-02 12:18:00,
2013-07-02 08:33:00,63.9,59.0,30.10,ESE,103,0.0,-999.0,84,-99.99,,,0.00,weatherlink.com 1.10,2013-07-02 12:33:00,
2013-07-02 08:48:00,64.3,59.0,30.11,NE,46,0.0,-999.0,82,-99.99,,,0.00,weatherlink.com 1.10,2013-07-02 12:48:00,
2013-07-02 09:03:00,64.8,59.0,30.10,NE,54,0.0,-999.0,81,-99.99,,,0.00,weatherlink.com 1.10,2013-07-02 13:03:00,
2013-07-02 09:18:00,64.8,59.0,30.10,SE,138,0.0,-999.0,81,-99.99,,,0.00,weatherlink.com 1.10,2013-07-02 13:18:00,
2013-07-02 09:33:00,65.1,59.0,30.10,NE,50,0.0,-999.0,81,-99.99,,,0.00,weatherlink.com 1.10,2013-07-02 13:33:00,
2013-07-02 09:49:00,65.8,60.0,30.10,NE,47,0.0,-999.0,81,-99.99,,,0.00,weatherlink.com 1.10,2013-07-02 13:49:00,
2013-07-02 10:04:00,66.5,61.0,30.10,NE,53,3.0,-999.0,82,-99.99,,,0.00,weatherlink.com 1.10,2013-07-02 14:04:00,
2013-07-02 10:19:00,66.4,61.0,30.10,ENE,64,0.0,-999.0,82,-99.99,,,0.00,weatherlink.com 1.10,2013-07-02 14:19:00,
2013-07-02 10:34:00,66.5,61.0,30.10,NE,50,3.0,-999.0,83,-99.99,,,0.00,weatherlink.com 1.10,2013-07-02 14:34:00,
2013-07-02 10:49:00,66.5,62.0,30.10,NE,36,5.0,-999.0,84,-99.99,,,0.00,weatherlink.com 1.10,2013-07-02 14:49:00,
2013-07-02 11:04:00,66.4,62.0,30.10,SE,131,0.0,-999.0,85,-99.99,,,0.00,weatherlink.com 1.10,2013-07-02 15:04:00,
2013-07-02 11:19:00,65.8,62.0,30.10,NNE,30,0.0,-999.0,87,-99.99,,,0.00,weatherlink.com 1.10,2013-07-02 15:19:00,
2013-07-02 11:34:00,65.7,62.0,30.10,NE,38,5.0,-999.0,88,-99.99,,,0.00,weatherlink.com 1.10,2013-07-02 15:34:00,
2013-07-02 11:49:00,65.8,62.0,30.10,NE,55,5.0,-999.0,88,-99.99,,,0.00,weatherlink.com 1.10,2013-07-02 15:49:00,
2013-07-02 12:19:00,65.8,62.0,30.10,ENE,59,0.0,-999.0,88,-99.99,,,0.00,weatherlink.com 1.10,2013-07-02 16:19:00,
2013-07-02 12:34:00,66.1,63.0,30.11,NE,54,4.0,-999.0,88,-99.99,,,0.00,weatherlink.com 1.10,2013-07-02 16:34:00,
2013-07-02 12:49:00,66.2,63.0,30.11,NE,56,0.0,-999.0,88,-99.99,,,0.00,weatherlink.com 1.10,2013-07-02 16:49:00,
2013-07-02 13:04:00,66.5,63.0,30.11,ENE,57,7.0,-999.0,87,-99.99,,,0.00,weatherlink.com 1.10,2013-07-02 17:04:00,
2013-07-02 13:19:00,66.7,63.0,30.11,NE,41,0.0,-999.0,88,-99.99,,,0.00,weatherlink.com 1.10,2013-07-02 17:19:00,
2013-07-02 13:34:00,66.8,63.0,30.11,NE,48,5.0,-999.0,87,-99.99,,,0.00,weatherlink.com 1.10,2013-07-02 17:34:00,
2013-07-02 13:49:00,67.1,63.0,30.11,NE,41,0.0,-999.0,87,-99.99,,,0.00,weatherlink.com 1.10,2013-07-02 17:49:00,
2013-07-02 14:04:00,68.0,64.0,30.11,NE,36,0.0,-999.0,86,-99.99,,,0.00,weatherlink.com 1.10,2013-07-02 18:04:00,
2013-07-02 14:19:00,68.8,64.0,30.10,NE,52,1.0,-999.0,85,-99.99,,,0.00,weatherlink.com 1.10,2013-07-02 18:19:00,
2013-07-02 14:34:00,69.2,64.0,30.10,NE,56,0.0,-999.0,84,-99.99,,,0.00,weatherlink.com 1.10,2013-07-02 18:34:00,
2013-07-02 14:49:00,69.8,64.0,30.10,NE,34,2.0,-999.0,82,-99.99,,,0.00,weatherlink.com 1.10,2013-07-02 18:49:00,
2013-07-02 15:04:00,70.3,64.0,30.09,NNE,18,4.0,-999.0,80,-99.99,,,0.00,weatherlink.com 1.10,2013-07-02 19:04:00,
2013-07-02 15:19:00,71.2,64.0,30.10,NNE,30,5.0,-999.0,78,-99.99,,,0.00,weatherlink.com 1.10,2013-07-02 19:19:00,
2013-07-02 15:34:00,71.2,64.0,30.10,NE,34,4.0,-999.0,79,-99.99,,,0.00,weatherlink.com 1.10,2013-07-02 19:34:00,
2013-07-02 15:49:00,71.1,64.0,30.10,NE,34,2.0,-999.0,78,-99.99,,,0.00,weatherlink.com 1.10,2013-07-02 19:49:00,
2013-07-02 16:04:00,70.8,63.0,30.09,NNE,28,4.0,-999.0,77,-99.99,,,0.00,weatherlink.com 1.10,2013-07-02 20:04:00,
2013-07-02 16:19:00,71.1,64.0,30.09,NE,46,5.0,-999.0,78,-99.99,,,0.00,weatherlink.com 1.10,2013-07-02 20:19:00,
2013-07-02 16:34:00,72.1,65.0,30.09,ENE,63,0.0,-999.0,78,-99.99,,,0.00,weatherlink.com 1.10,2013-07-02 20:34:00,
2013-07-02 16:49:00,72.6,64.0,30.09,ENE,60,0.0,-999.0,75,-99.99,,,0.00,weatherlink.com 1.10,2013-07-02 20:49:00,
2013-07-02 17:04:00,72.7,65.0,30.09,NNE,26,3.0,-999.0,77,-99.99,,,0.00,weatherlink.com 1.10,2013-07-02 21:04:00,
2013-07-02 17:19:00,72.6,65.0,30.09,ESE,118,0.0,-999.0,77,-99.99,,,0.00,weatherlink.com 1.10,2013-07-02 21:19:00,
2013-07-02 17:34:00,72.6,65.0,30.09,NE,51,0.0,-999.0,77,-99.99,,,0.00,weatherlink.com 1.10,2013-07-02 21:34:00,
2013-07-02 17:49:00,72.2,65.0,30.09,NE,44,4.0,-999.0,78,-99.99,,,0.00,weatherlink.com 1.10,2013-07-02 21:49:00,
2013-07-02 18:04:00,72.4,65.0,30.09,NE,46,6.0,-999.0,78,-99.99,,,0.00,weatherlink.com 1.10,2013-07-02 22:04:00,
2013-07-02 18:19:00,72.6,65.0,30.09,NE,47,3.0,-999.0,77,-99.99,,,0.00,weatherlink.com 1.10,2013-07-02 22:19:00,
2013-07-02 18:34:00,72.1,65.0,30.09,NNE,28,2.0,-999.0,78,-99.99,,,0.00,weatherlink.com 1.10,2013-07-02 22:34:00,
2013-07-02 18:49:00,71.6,65.0,30.09,NE,37,0.0,-999.0,79,-99.99,,,0.00,weatherlink.com 1.10,2013-07-02 22:49:00,
2013-07-02 19:04:00,71.7,65.0,30.09,NE,49,0.0,-999.0,79,-99.99,,,0.00,weatherlink.com 1.10,2013-07-02 23:04:00,
2013-07-02 19:19:00,71.8,65.0,30.09,NE,56,0.0,-999.0,80,-99.99,,,0.00,weatherlink.com 1.10,2013-07-02 23:19:00,
2013-07-02 19:34:00,71.6,65.0,30.09,NE,46,3.0,-999.0,80,-99.99,,,0.00,weatherlink.com 1.10,2013-07-02 23:34:00,
2013-07-02 19:49:00,71.6,65.0,30.10,ENE,59,0.0,-999.0,80,-99.99,,,0.00,weatherlink.com 1.10,2013-07-02 23:49:00,
2013-07-02 20:04:00,71.0,65.0,30.10,ENE,63,0.0,-999.0,82,-99.99,,,0.00,weatherlink.com 1.10,2013-07-03 00:04:00,
2013-07-02 20:19:00,69.9,65.0,30.10,ENE,63,0.0,-999.0,84,-99.99,,,0.00,weatherlink.com 1.10,2013-07-03 00:19:00,
2013-07-02 20:34:00,68.9,65.0,30.10,ENE,63,0.0,-999.0,86,-99.99,,,0.00,weatherlink.com 1.10,2013-07-03 00:34:00,
2013-07-02 20:49:00,68.1,65.0,30.10,ENE,63,0.0,-999.0,88,-99.99,,,0.00,weatherlink.com 1.10,2013-07-03 00:49:00,
2013-07-02 21:04:00,67.2,64.0,30.11,ENE,63,0.0,-999.0,90,-99.99,,,0.00,weatherlink.com 1.10,2013-07-03 01:04:00,
2013-07-02 21:19:00,66.5,64.0,30.11,ENE,63,0.0,-999.0,92,-99.99,,,0.00,weatherlink.com 1.10,2013-07-03 01:19:00,
2013-07-02 21:34:00,66.0,64.0,30.10,ENE,63,0.0,-999.0,93,-99.99,,,0.00,weatherlink.com 1.10,2013-07-03 01:34:00,
2013-07-02 22:05:00,65.0,64.0,30.11,ENE,63,0.0,-999.0,95,-99.99,,,0.00,weatherlink.com 1.10,2013-07-03 02:05:00,
2013-07-02 22:20:00,65.0,64.0,30.12,ENE,63,0.0,-999.0,95,-99.99,,,0.00,weatherlink.com 1.10,2013-07-03 02:20:00,
2013-07-02 22:35:00,65.0,64.0,30.11,ENE,63,0.0,-999.0,96,-99.99,,,0.00,weatherlink.com 1.10,2013-07-03 02:35:00,
2013-07-02 22:50:00,65.1,64.0,30.11,ENE,63,0.0,-999.0,96,-99.99,,,0.00,weatherlink.com 1.10,2013-07-03 02:50:00,
2013-07-02 23:05:00,65.1,64.0,30.11,ENE,63,0.0,-999.0,97,-99.99,,,0.00,weatherlink.com 1.10,2013-07-03 03:05:00,
2013-07-02 23:20:00,65.5,65.0,30.11,ENE,63,0.0,-999.0,97,-99.99,,,0.00,weatherlink.com 1.10,2013-07-03 03:20:00,
2013-07-02 23:35:00,65.6,65.0,30.11,ENE,63,0.0,-999.0,97,-99.99,,,0.00,weatherlink.com 1.10,2013-07-03 03:35:00,
2013-07-02 23:50:00,65.7,65.0,30.11,ENE,63,0.0,-999.0,97,-99.99,,,0.00,weatherlink.com 1.10,2013-07-03 03:50:00,